Location: Observatory
(52.1446°N, 0.4624°W)
Time: 05:40:02
(UTC+00:00)

ISS - Pass Details

Date: 04 December 2019
Orbit: 411 x 421 km, 51.6° (Epoch: 15 December)

Event Time Altitude Azimuth Distance (km) Brightness Sun altitude
Rises 17:22:01 0° 274° (W) 2,358 1.4 -13.0°
Reaches altitude 10° 17:24:06 10° 273° (W) 1,496 0.2 -13.3°
Maximum altitude 17:27:27 79° 188° (S) 431 -3.7 -13.8°
Enters shadow 17:29:22 24° 103° (ESE) 919 -2.5 -14.1°
